This is the latest recevied weather packets stored in our database for station/object F1AGU-13. If no packets are shown the sender has not sent any weather packets the latest 10 day(s).
| Time | Temp. | Humidity | Pressure | Rain* | Wind** | Luminosity | Snow |
|---|---|---|---|---|---|---|---|
| 1787766616 | 21.67° C | 76% | 1016.4 hPa | 0 mm | - | - | - |
| 1787766016 | 22.22° C | 75% | 1016.5 hPa | 0 mm | - | - | - |
| 1787765416 | 22.22° C | 74% | 1016.6 hPa | 0 mm | - | - | - |
| 1787764816 | 23.33° C | 71% | 1016.5 hPa | 0 mm | - | - | - |
| 1787764216 | 23.89° C | 69% | 1016.8 hPa | 0 mm | - | - | - |
| 1787763616 | 24.44° C | 65% | 1016.9 hPa | 0 mm | - | - | - |
| 1787763016 | 25° C | 61% | 1017.1 hPa | 0 mm | - | - | - |
| 1787762416 | 25.56° C | 62% | 1017.2 hPa | 0 mm | - | - | - |
| 1787761816 | 25.56° C | 62% | 1017.4 hPa | 0 mm | - | - | - |
| 1787761216 | 25.56° C | 65% | 1017.4 hPa | 0 mm | - | - | - |
| 1787760616 | 25.56° C | 59% | 1017.2 hPa | 0 mm | - | - | - |
| 1787760016 | 25.56° C | 60% | 1017.3 hPa | 0 mm | - | - | - |
| 1787759416 | 25° C | 64% | 1017.1 hPa | 0 mm | - | - | - |
| 1787758816 | 25° C | 64% | 1017.2 hPa | 0 mm | - | - | - |
| 1787758216 | 25° C | 63% | 1017.5 hPa | 0 mm | - | - | - |
| 1787757616 | 25° C | 65% | 1017.4 hPa | 0 mm | - | - | - |
| 1787757016 | 24.44° C | 61% | 1017.4 hPa | 0 mm | - | - | - |
| 1787756416 | 25° C | 61% | 1017.7 hPa | 0 mm | - | - | - |
| 1787755816 | 25° C | 62% | 1017.8 hPa | 0 mm | - | - | - |
| 1787755216 | 24.44° C | 64% | 1017.7 hPa | 0 mm | - | - | - |
| 1787754616 | 23.89° C | 67% | 1017.9 hPa | 0 mm | - | - | - |
| 1787754016 | 23.89° C | 65% | 1017.8 hPa | 0 mm | - | - | - |
| 1787753416 | 23.89° C | 66% | 1017.7 hPa | 0 mm | - | - | - |
| 1787752816 | 23.89° C | 64% | 1017.4 hPa | 0 mm | - | - | - |
| 1787752216 | 23.89° C | 64% | 1017.4 hPa | 0 mm | - | - | - |
* Rain latest hour (hover to see other rain measurements)
** Current wind speed in m/s (hover to see current wind gust speed)